Location: Newcastle
(43.9170°N, 78.5830°W)
Time: 05:44:49
(UTC-04:00)

Daily predictions for brighter satellites

Satellite Brightness Start Highest point End
(mag) Time Altitude Azimuth Time Altitude Azimuth Time Altitude Azimuth
Cosmos 1869 Rocket 4.2 00:07:23 55° NW 00:07:23 55° NW 00:11:07 10° N
Cosmos 540 Rocket 3.7 00:03:24 10° NNW 00:08:15 62° NE 00:08:15 62° NE
Spot 4 4.0 00:09:17 67° NNE 00:09:17 67° NNE 00:13:32 10° N
Cosmos 2333 Rocket 4.2 00:05:37 10° N 00:09:51 20° NE 00:12:07 16° ENE
Meteor 1-5 Rocket 4.2 00:09:55 78° SSW 00:10:21 87° W 00:16:22 10° N
Cosmos 1814 Rocket 4.3 00:05:30 10° NNW 00:10:23 55° NE 00:10:23 55° NE
Cosmos 2100 Rocket 4.1 00:12:34 55° SW 00:13:40 65° W 00:19:47 10° N
ALOS 2 3.7 00:15:25 38° NE 00:15:25 38° NE 00:18:40 10° N
Cosmos 44 3.8 00:18:52 10° NNW 00:23:19 55° NNE 00:23:19 55° NNE
NOSS 3-2 (A) 4.4 00:19:21 14° WSW 00:24:08 44° NW 00:30:26 10° NNE
MOS 1-B Rocket 4.0 00:18:40 10° N 00:24:20 64° WNW 00:24:59 59° WSW
Cosmos 1066 Rocket 4.5 00:20:28 10° N 00:25:59 58° ENE 00:25:59 58° ENE
Lacrosse 5 2.2 00:22:10 10° NW 00:26:38 64° NNW 00:26:38 64° NNW
NOSS 3-2 (C) 3.8 00:26:47 42° WSW 00:28:37 61° NW 00:35:06 10° NNE
Meteor 2-4 Rocket 4.2 00:23:34 10° NNW 00:29:00 48° W 00:29:07 48° W
Cosmos 2173 Rocket 4.5 00:31:00 45° WSW 00:32:11 50° WNW 00:38:10 10° N
Cosmos 1725 Rocket 3.9 00:35:13 80° SW 00:35:34 85° W 00:41:56 10° N
SL-08 R/B 4.4 00:40:22 74° WSW 00:40:36 75° W 00:46:42 10° N
Cosmos 2061 Rocket 4.1 00:42:40 59° WSW 00:43:16 62° W 00:49:25 10° N
Cosmos 1733 Rocket 4.2 00:46:57 42° N 00:46:57 42° N 00:49:56 10° N
Terra 4.4 00:47:47 11° W 00:48:01 11° W 00:49:11 10° WNW
Cosmos 2016 Rocket 4.3 00:49:06 52° WSW 00:49:53 55° WNW 00:56:08 10° N
Nimbus 7 Rocket 4.4 00:51:05 10° NNE 00:56:57 75° WNW 00:57:01 75° WNW
Cosmos 1833 4.3 00:59:56 67° NE 00:59:56 67° NE 01:04:51 10° NNE
Lacrosse 4 Rocket 3.5 01:01:53 21° NE 01:01:53 21° NE 01:03:28 10° NE
SL-16 R/B 3.2 00:55:37 10° NW 00:59:55 35° W 00:59:55 35° W
Cosmos 2322 4.1 00:56:15 10° NNW 01:01:51 55° ENE 01:01:52 55° ENE
Meteor 1-11 Rocket 4.5 01:09:36 41° W 01:09:50 42° WNW 01:15:14 10° N
Meteor 2-11 Rocket 4.3 01:13:33 83° NE 01:13:33 83° NE 01:19:28 10° N
ATLAS 3B R/B 2.5 01:15:22 72° WSW 01:15:57 78° NW 01:22:38 10° NE
Cosmos 2219 Rocket 2.8 01:10:26 10° NNW 01:15:58 50° ENE 01:16:15 49° ENE
Cosmos 2333 4.3 01:10:22 10° NNW 01:15:57 70° NE 01:15:57 70° NE
Cosmos 968 Rocket 4.1 01:19:12 51° NE 01:19:12 51° NE 01:23:04 10° NNE
Cosmos 1464 Rocket 4.2 01:22:53 57° E 01:22:53 57° E 01:28:55 10° NNE
Cosmos 2322 Rocket 3.6 01:19:24 10° NW 01:23:06 27° W 01:23:06 27° W
Cosmos 2233 Rocket 4.3 01:24:31 55° W 01:24:51 56° WNW 01:31:05 10° N
COSMOS 2428 3.0 01:29:20 10° NNW 01:35:04 62° ENE 01:35:07 62° ENE
Cosmos 1975 Rocket 4.2 01:33:52 10° N 01:37:00 42° NNE 01:37:00 42° NNE
Helios 1B rocket 4.2 01:35:34 10° NNE 01:37:45 28° NE 01:37:45 28° NE
Cosmos 2360 Rocket 3.2 01:34:39 10° NW 01:38:37 35° WNW 01:38:37 35° WNW
ATLAS 5 CENTAUR R/B 4.2 01:36:39 10° WNW 01:38:00 23° WNW 01:38:00 23° WNW
CZ-2D R/B 4.1 01:38:09 10° NE 01:41:50 18° E 01:42:01 18° E
Meteor 2-9 Rocket 4.3 01:47:03 74° NNE 01:47:03 74° NNE 01:52:12 10° NNE
SL-16 R/B 4.1 01:43:54 20° ESE 01:46:54 29° ENE 01:52:10 10° N
GEOS 3 Rocket 4.4 01:41:55 10° NE 01:46:02 43° E 01:46:02 43° E
Nadezhda 4 Rocket 4.2 01:42:10 10° N 01:48:25 61° E 01:48:56 59° ESE
Cosmos 2034 Rocket 4.0 01:49:56 65° ESE 01:50:06 66° E 01:56:20 10° NNE
Cosmos 2297 Rocket 3.7 01:51:01 25° E 01:51:01 25° E 01:55:01 10° NE
Cosmos 2219 4.5 01:51:35 29° E 01:51:35 29° E 01:55:46 10° NE
Cosmos 44 Rocket 4.1 01:46:12 10° NNW 01:51:03 49° NE 01:51:05 49° NE
Cosmos 1513 Rocket 4.4 01:51:26 84° SW 01:51:37 86° W 01:58:05 10° N
Cosmos 1072 Rocket 4.3 01:53:20 79° W 01:53:20 79° W 01:59:27 10° N
CENTAUR R/B 4.4 01:48:56 10° W 01:54:18 27° NNW 02:00:25 10° NNE
Cosmos 2333 Rocket 2.4 01:49:00 10° NNW 01:54:05 67° NW 01:54:05 67° NW
Cosmos 1503 Rocket 4.2 01:57:39 69° N 01:57:39 69° N 02:02:28 10° NNE
Cosmos 1891 Rocket 4.5 02:00:48 71° WSW 02:01:07 72° W 02:07:35 10° N
Cosmos 2237 Rocket 3.2 01:58:07 10° NNW 02:03:29 42° ENE 02:05:08 34° E
CZ-4 R/B 4.3 01:59:06 10° N 02:03:21 61° NNW 02:03:21 61° NNW
SJ 16-02 3.9 02:16:09 13° E 02:16:09 13° E 02:17:52 10° ENE
Meteor 1-12 Rocket 4.2 02:20:03 78° SE 02:20:15 79° E 02:26:17 10° NNE
In-Cosmos 22 4.3 02:18:00 10° N 02:23:37 67° ENE 02:23:56 65° E
Cosmos 1025 Rocket 3.9 02:23:39 10° N 02:26:43 46° N 02:26:43 46° N
Timation 2 Rocket 3.7 02:29:29 79° SSW 02:29:54 89° ESE 02:36:01 10° NNE
MOZ.5/SAFIR/RUBIN 5/SL-8 4.0 02:32:59 69° NE 02:32:59 69° NE 02:37:26 10° N
Cosmos 1538 Rocket 4.2 02:31:04 10° NNW 02:36:12 62° ENE 02:36:43 59° E
Lacrosse 4 Rocket 3.5 02:38:11 20° NW 02:38:17 20° NW 02:41:27 10° N
Cosmos 2227 Rocket 2.5 02:39:02 52° ESE 02:39:19 52° ESE 02:44:49 10° NE
Cosmos 1536 Rocket 4.2 02:36:29 10° N 02:39:49 52° N 02:39:49 52° N
Resurs 1-4 Rocket 2.3 02:37:06 10° NNE 02:42:20 59° E 02:42:37 58° ESE
SL-4 R/B 3.7 02:45:13 27° NNE 02:45:13 27° NNE 02:47:47 10° ENE
Meteor 2-13 Rocket 4.3 02:39:14 10° N 02:45:22 90° E 02:46:15 68° S
Cosmos 773 Rocket 4.2 02:42:07 10° NNW 02:46:31 60° WNW 02:46:31 60° WNW
Cosmos 2195 Rocket 4.4 02:43:14 10° N 02:49:34 86° W 02:50:40 64° S
SL-19 R/B 4.3 02:46:04 10° N 02:52:01 68° WNW 02:52:40 63° WSW
NOSS 0 Rocket 4.0 02:50:24 10° NW 02:56:29 56° WSW 02:56:29 56° WSW
Cosmos 2219 Rocket 3.7 02:55:00 10° NW 02:57:56 22° WNW 02:57:56 22° WNW
Cosmos 2082 4.3 02:59:07 40° SE 03:00:04 44° ESE 03:05:22 10° NE
Cosmos 2279 Rocket 4.2 02:58:33 46° SSE 03:00:16 63° E 03:06:23 10° NNE
Cosmos 2026 Rocket 3.8 02:57:29 10° N 03:03:35 78° W 03:04:42 61° SSW
IRAS Rocket 4.1 03:03:46 68° SSW 03:04:20 75° WSW 03:09:56 10° NNW
Cosmos 1634 Rocket 3.9 03:04:30 59° SW 03:05:40 75° W 03:11:56 10° N
Cosmos 1627 Rocket 4.4 03:00:30 10° NNW 03:06:37 71° W 03:07:41 59° SSW
ATLAS 3B R/B 4.5 03:02:36 10° W 03:07:43 23° NNW 03:12:55 10° NNE
USA 215 3.3 03:05:16 10° NE 03:11:46 64° SE 03:13:28 48° SSW
Cosmos 1766 3.6 03:12:40 62° NE 03:12:40 62° NE 03:16:05 10° NNE
SL-16 R/B 2.8 03:06:46 10° NNW 03:12:22 54° ENE 03:17:41 11° SE
Meteor 1-24 Rocket 4.2 03:07:20 10° N 03:12:41 52° ENE 03:15:19 28° SE
ARIANE 5 R/B 4.3 03:11:56 10° NE 03:16:16 26° E 03:19:02 17° SE
Cosmos 2142 Rocket 4.4 03:15:11 52° SSW 03:16:52 84° W 03:23:18 10° N
Meteor 2-5 Rocket 3.7 03:11:40 10° N 03:17:21 77° ENE 03:19:16 42° SSE
COSMOS 2428 4.4 03:14:42 10° NW 03:17:05 18° WNW 03:17:05 18° WNW
Cosmos 1680 Rocket 4.3 03:14:18 10° N 03:19:24 50° ENE 03:23:33 15° SE
AQUA 3.7 03:15:46 10° NNE 03:20:34 88° ESE 03:21:05 71° S
NPP 3.6 03:16:26 10° N 03:21:50 77° WNW 03:22:51 59° SW
CZ-2D R/B 2.2 03:16:53 10° N 03:22:20 66° WNW 03:23:20 54° WSW
Cosmos 1626 2.7 03:18:43 10° N 03:22:21 51° ENE 03:22:28 50° E
UNK 4.1 03:25:45 48° W 03:25:45 48° W 03:29:55 10° NNW
Cosmos 1470 4.2 03:27:48 28° ESE 03:28:46 32° E 03:32:21 10° NNE
ADEOS II 2.4 03:24:13 10° NNE 03:29:27 62° ESE 03:31:11 40° SSE
Okean 1 Rocket 3.3 03:29:49 51° WNW 03:29:49 51° WNW 03:33:55 10° N
SL-16 R/B 2.7 03:29:01 46° SW 03:30:11 52° W 03:36:18 10° NNW
IRS-1D 3.5 03:26:51 10° NNE 03:31:56 76° ESE 03:33:19 49° S
Cosmos 2263 Rocket 4.2 03:29:03 11° SE 03:32:36 20° E 03:36:30 10° NE
Cosmos 2297 Rocket 2.6 03:32:49 41° WSW 03:34:13 51° WNW 03:39:44 10° NNE
Cosmos 2219 3.8 03:33:30 36° W 03:34:55 43° WNW 03:40:18 10° NNE
Meteor 1-22 Rocket 4.0 03:34:07 47° S 03:35:40 82° E 03:40:59 10° NNE
Cosmos 1980 4.4 03:32:21 10° NW 03:36:58 34° W 03:36:58 34° W
Cosmos 1607 4.1 03:31:20 10° NNW 03:37:50 81° NE 03:44:18 10° SE
ERBS 4.3 03:37:33 10° NW 03:45:33 - SE 03:38:43 20° NW
NOSS 3-1 (C) 3.8 03:39:36 35° SSE 03:41:30 49° ESE 03:47:22 10° NE
USA 267 3.9 03:37:12 10° ESE 03:43:33 55° NNE 03:49:54 10° NW
CZ-4B R/B 3.3 03:38:50 10° N 03:43:36 74° WNW 03:44:37 53° SW
SL-08 R/B 4.0 03:40:52 15° SSE 03:44:51 56° ENE 03:49:43 10° N
Cosmos 1805 4.1 03:45:32 36° WNW 03:45:32 36° WNW 03:48:49 10° N
Cosmos 2237 Rocket 3.1 03:42:29 10° NW 03:46:53 30° W 03:46:53 30° W
Cosmos 923 Rocket 3.9 03:44:18 10° NNW 03:49:37 70° WSW 03:51:51 35° S
SL-14 R/B 3.1 03:45:41 10° N 03:49:37 79° W 03:49:59 70° SSW
BREEZE-M TANK 2.6 03:51:20 36° WNW 03:52:40 88° N 03:59:39 10° ESE
Cosmos 2266 Rocket 4.0 03:47:13 10° N 03:53:38 83° E 03:58:34 17° S
SJ 16-02 1.4 03:53:09 52° WSW 03:53:58 63° WNW 03:58:22 10° NNE
Cosmos 1655 Rocket 3.9 03:49:19 10° NNW 03:55:35 74° W 03:59:08 27° S
Cosmos 158 Rocket 3.9 03:50:23 10° NNW 03:55:46 80° WSW 03:59:34 20° SSE
ATLAS 3B CENTAUR R/B 4.2 03:53:44 28° SSW 03:56:01 30° SSW 04:02:09 10° SE
Cosmos 2098 Rocket 3.6 03:51:17 10° N 03:56:10 83° E 04:00:46 18° S
Cosmos 1758 3.5 04:00:42 36° SSE 04:02:11 67° E 04:06:12 10° NNE
Cosmos 1733 4.1 04:02:48 32° WNW 04:02:48 32° WNW 04:06:16 10° N
Cosmos 1455 Rocket 3.0 04:02:56 43° SSW 04:04:18 78° W 04:08:46 10° N
Cosmos 1626 Rocket 4.4 04:02:08 10° N 04:06:20 48° ENE 04:10:30 10° SSE
FALCON 9 DEB 4.5 04:05:13 10° NW 04:08:33 41° NNE 04:11:52 10° E
CZ-2C R/B 4.3 04:09:50 10° NNE 04:13:20 31° E 04:16:20 12° SSE
Cosmos 1892 Rocket 3.9 04:09:08 10° NNW 04:13:26 47° W 04:14:37 37° SW
Cosmos 1461 3.0 04:12:35 40° SW 04:14:05 72° NW 04:18:38 10° NNE
USA 229 DEB 3.7 04:10:54 27° SSW 04:14:40 75° ESE 04:21:29 10° NE
USA 229 3.7 04:11:00 27° SSW 04:14:45 74° ESE 04:21:33 10° NE
OPS 8737 4.4 04:15:04 49° SW 04:15:54 75° NW 04:19:00 10° NNE
Cosmos 1340 Rocket 2.7 04:16:46 38° SSW 04:18:14 77° W 04:22:13 10° N
CZ-2D R/B 3.7 04:14:45 10° NNE 04:18:47 63° ESE 04:21:08 23° S
Cosmos 1943 4.4 04:13:32 10° NNW 04:18:53 43° ENE 04:24:12 10° SE
IRS-P3 4.2 04:13:37 10° N 04:18:55 65° WNW 04:21:46 28° SW
ERS-2 4.2 04:16:20 10° SE 04:19:29 29° ENE 04:22:40 10° N
Spot 4 Rocket 4.3 04:15:19 10° NNE 04:20:28 67° ESE 04:24:27 17° S
Resurs 1-4 Rocket 3.7 04:17:54 10° NNW 04:21:42 21° WNW 04:23:41 17° W
SeaSat 1 3.8 04:18:15 10° NE 04:22:45 34° ESE 04:27:03 11° S
Cosmos 2227 Rocket 3.5 04:20:52 18° W 04:23:40 27° NW 04:28:26 10° N
Cosmos 1726 2.4 04:22:11 24° S 04:24:16 65° E 04:27:56 10° NNE
SL-4 R/B 1.3 04:21:12 10° WNW 04:24:37 78° SSW 04:28:01 10° SE
Cosmos 1953 2.8 04:22:11 19° S 04:24:57 60° E 04:28:57 10° NNE
NOSS 2-3 (C) 4.0 04:23:25 25° S 04:25:40 55° ESE 04:30:24 10° NE
NOSS 3-1 (A) 3.5 04:22:27 23° SSW 04:25:52 63° ESE 04:32:00 10° NE
Cosmos 1809 Rocket 4.4 04:20:20 10° N 04:26:28 88° W 04:32:35 10° S
Cosmos 2227 4.4 04:30:39 18° SSW 04:35:01 72° ESE 04:40:47 10° NNE
CZ-4C R/B 3.3 04:37:09 10° SSE 04:40:17 61° ENE 04:43:33 10° N
H-2A R/B 2.2 04:37:04 10° SSE 04:41:10 71° ENE 04:45:15 10° N
Cosmos 724 4.4 04:39:14 10° NNW 04:45:16 89° NE 04:51:25 10° SSE
Meteor 2-21 4.4 04:43:23 10° NNW 04:49:23 68° W 04:55:24 10° S
Meteor 1-16 Rocket 4.3 04:44:48 10° S 04:50:07 75° E 04:55:37 10° NNE
Cosmos 1544 Rocket 4.3 04:48:35 21° SW 04:50:58 35° WNW 04:55:07 10° N
Cosmos 1937 Rocket 3.9 04:47:41 20° SW 04:51:13 49° WNW 04:56:24 10° N
USA 215 3.9 04:48:25 10° NE 04:54:39 48° NNW 05:00:48 10° W
ARIANE 5 R/B 3.1 04:50:35 10° N 04:55:30 43° WNW 04:59:22 16° SW
SL-16 R/B 3.3 04:51:40 10° NW 04:56:04 24° WSW 04:59:23 14° SW
Cosmos 1898 Rocket 4.4 04:52:51 17° WSW 04:56:09 33° WNW 05:00:54 10° N
Cosmos 1703 3.7 04:52:51 10° N 04:56:50 64° E 05:00:44 10° SSE
Cosmos 1626 4.4 04:56:17 10° WNW 04:56:58 11° W 04:56:58 11° W
Meteor 1-28 Rocket 4.4 04:56:12 19° SW 04:57:39 24° W 05:00:49 10° NW
IDEFIX/ARIANE 42P 2.7 04:55:16 10° N 05:00:22 59° WNW 05:05:08 12° SSW
Cosmos 2285 Rocket 4.3 04:54:15 10° S 05:00:30 68° ESE 05:06:46 10° NNE
CZ-2D R/B 4.3 05:00:11 10° NW 05:01:20 11° NW 05:02:29 10° WNW
Cosmos 1470 4.4 05:03:09 15° WSW 05:04:55 19° WNW 05:07:48 10° NNW
ADEOS II 3.7 05:04:58 10° NNW 05:08:39 20° WNW 05:12:07 11° WSW
COSMOS 2441 4.3 05:05:46 10° N 05:10:34 75° WNW 05:15:22 10° SSW
Cosmos 1602 Rocket 3.9 05:07:07 10° NNW 05:11:16 43° W 05:15:22 10° SSW
Cosmos 372 Rocket 4.1 05:08:09 11° SSW 05:13:09 66° WNW 05:18:23 10° NNE
Cosmos 1606 Rocket 4.0 05:09:02 10° S 05:13:27 67° E 05:17:55 10° NNE
Cosmos 2263 Rocket 2.3 05:10:46 11° SW 05:15:59 62° WNW 05:21:31 10° NNE
Cosmos 2297 Rocket 4.5 05:18:25 10° NW 05:19:42 11° NW 05:20:58 10° NNW
CZ-2C R/B 2.4 05:18:26 10° NNE 05:23:02 77° ESE 05:27:37 10° S
NOSS 2-3 (E) 4.2 05:20:16 11° WSW 05:24:12 47° NW 05:29:05 10° NNE
Aureole 3 4.3 05:21:02 10° S 05:26:01 87° E 05:32:27 10° N
USA 267 3.4 05:20:14 10° SSE 05:26:34 52° SW 05:32:57 10° WNW
Cosmos 1125 Rocket 3.8 05:22:07 10° S 05:27:18 73° ESE 05:32:33 10° NNE
Cosmos 1553 Rocket 4.0 05:21:31 10° SSW 05:27:33 69° W 05:33:39 10° N
Cosmos 2084 4.3 05:25:50 10° SSW 05:30:03 49° ESE 05:34:20 10° NE
Cosmos 1726 Rocket 3.7 05:26:53 10° S 05:31:20 83° E 05:35:49 10° N
NOSS 3-1 (C) 4.4 05:27:26 10° WSW 05:32:33 35° NW 05:38:27 10° NNE
SL-08 ROCKET BODY 4.4 05:29:16 10° N 05:35:22 77° W 05:41:20 10° S
Cosmos 1603 4.1 05:30:36 10° NW 05:35:57 41° WSW 05:41:14 10° S
Cosmos 1745 Rocket 4.0 05:32:03 10° N 05:38:22 78° W 05:44:34 10° S
Cosmos 1844 Rocket 3.7 05:37:12 10° S 05:42:32 48° ESE 05:47:53 10° NE
